Location: Alevi
(42.1929°N, 44.5243°E)
Time: 15:48:48
(UTC+00:00)

Daily predictions for brighter satellites

Satellite Brightness Start Highest point End
(mag) Time Altitude Azimuth Time Altitude Azimuth Time Altitude Azimuth
Cosmos 2360 Rocket 3.0 15:14:00 10° SSE 15:18:46 29° ESE 15:23:34 10° NE
ERS-2 3.0 15:17:16 10° NE 15:20:28 28° E 15:23:39 10° SSE
BREEZE-M DEB (TANK) 3.8 15:18:47 10° SW 15:22:01 60° SE 15:32:44 10° ENE
MOS 1 Rocket 3.9 15:17:15 10° N 15:22:19 72° WNW 15:27:37 10° SSW
H-2A R/B 3.7 15:20:37 10° N 15:24:22 36° WNW 15:28:09 10° SW
Cosmos 1271 Rocket 2.6 15:21:07 10° N 15:24:52 82° ENE 15:28:37 10° S
SKYMED 2 3.9 15:20:59 10° N 15:25:19 72° WNW 15:29:38 10° SSW
Cosmos 1470 Rocket 4.2 15:21:56 10° SSE 15:26:01 36° E 15:30:06 10° NNE
PSLV R/B 4.1 15:24:05 10° NNE 15:28:02 47° E 15:31:57 10° S
HJ-1C 4.3 15:25:46 10° SE 15:28:38 27° ENE 15:31:29 10° NNE
Cosmos 2333 Rocket 3.7 15:25:46 10° SE 15:28:43 14° E 15:31:41 10° ENE
Cosmos 1602 3.7 15:29:45 10° S 15:33:36 67° E 15:37:30 10° NNE
Okean O Rocket 4.0 15:30:58 10° SSW 15:34:43 28° W 15:38:30 10° NW
Cosmos 1980 Rocket 4.2 15:29:55 10° WSW 15:34:48 29° NW 15:39:43 10° N
CZ-4B R/B 2.5 15:35:35 10° N 15:38:30 43° WNW 15:41:26 10° SSW
SL-08 RB Rocket 4.3 15:35:49 10° SE 15:39:53 34° ENE 15:44:00 10° N
Cosmos 1500 3.7 15:37:56 10° SSE 15:41:21 35° E 15:44:46 10° NNE
SJ-11-01 4.2 15:39:16 10° SSE 15:43:54 71° ENE 15:48:36 10° N
CZ-2C R/B 4.2 15:40:17 10° S 15:45:54 53° W 15:51:20 10° NNW
Cosmos 1933 Rocket 4.0 15:42:54 10° SSE 15:46:56 39° E 15:51:01 10° NNE
Cosmos 2322 Rocket 2.2 15:42:47 10° SSW 15:48:23 89° WNW 15:54:03 10° NNE
Cosmos 1666 Rocket 4.3 15:44:11 10° SSW 15:48:26 57° W 15:52:42 10° N
Nadezhda 3 Rocket 4.0 15:46:15 10° N 15:52:38 72° E 15:58:58 10° SSE
Cosmos 1862 Rocket 3.6 15:48:21 10° N 15:52:53 85° E 15:57:21 10° S
Cosmos 1689 Rocket 1.9 15:51:34 10° NNE 15:54:28 87° ESE 15:57:20 10° SSW
Cosmos 2154 Rocket 4.0 15:50:09 10° S 15:56:22 85° E 16:02:36 10° N
Cosmos 1295 Rocket 4.4 15:51:31 10° S 15:57:45 73° E 16:03:55 10° NNE
Cosmos 2242 Rocket 4.1 15:53:55 10° N 15:58:07 37° ENE 16:02:15 10° SE
COSMOS 2428 3.9 15:54:44 10° SE 15:58:35 19° E 16:00:08 17° E
Cosmos 1610 Rocket 4.5 15:53:58 10° S 16:00:09 90° E 16:06:28 10° N
Lacrosse 4 Rocket 2.9 15:58:51 10° SSE 16:01:34 19° ESE 16:01:34 19° ESE
Meteor 1-14 Rocket 4.1 15:56:36 10° S 16:02:08 71° E 16:07:39 10° NNE
Aureole 2 Rocket 1.5 16:00:50 10° NNW 16:03:20 59° ENE 16:04:23 28° SE
YAOGAN 1 3.1 16:00:34 10° S 16:04:50 63° W 16:09:09 10° NNW
Helios 1A Rocket 2.8 16:01:54 10° SSE 16:05:56 78° ENE 16:10:00 10° N
Cosmos 2219 Rocket 3.0 16:01:30 10° SSE 16:06:02 26° ESE 16:10:37 10° NE
ASTEX 1 4.3 16:05:50 10° NNE 16:09:51 25° E 16:11:00 23° ESE
USA 234 3.3 16:05:35 10° NE 16:12:04 62° SE 16:18:30 10° SW
SJ-6B 3.8 16:11:18 27° E 16:12:04 29° ENE 16:15:36 10° N
GP-B 3.0 16:07:47 10° SSE 16:12:09 62° E 16:16:33 10° N
SL-16 R/B 3.3 16:07:36 10° SW 16:13:02 46° WNW 16:18:31 10° NNE
ARGOS 3.3 16:08:06 10° S 16:13:32 79° WSW 16:18:59 10° NNW
Cosmos 1992 Rocket 4.4 16:08:43 10° SSW 16:13:55 67° WNW 16:19:08 10° NNE
Cosmos 2263 Rocket 4.3 16:10:34 10° NW 16:15:16 28° WSW 16:19:56 10° SSW
Abrixas rocket 3.6 16:13:25 10° NW 16:15:19 19° N 16:15:47 18° NNE
SeaSat 1 2.6 16:18:21 10° NNE 16:23:18 76° WNW 16:28:12 10° SW
Cosmos 2322 3.8 16:19:54 10° S 16:25:24 50° ESE 16:30:54 10° NE
H-2A R/B 3.5 16:20:45 10° SSW 16:25:53 42° W 16:31:04 10° NNW
SJ 16-02 3.5 16:24:42 10° NNE 16:25:34 12° NE 16:25:34 12° NE
CZ-2C R/B 2.8 16:21:57 10° N 16:27:27 79° WNW 16:32:47 10° SSW
OBJECT-B 2.9 16:30:16 17° NNE 16:30:16 17° NNE 16:31:13 10° N
SL-8 Rocket 3.9 16:22:21 10° S 16:28:29 61° E 16:34:35 10° NNE
Okean 1-7 2.9 16:24:16 10° N 16:28:37 66° E 16:31:49 17° SSE
Cosmos 962 Rocket 4.5 16:24:18 10° S 16:30:30 88° W 16:36:50 10° N
CZ-4 R/B 3.7 16:27:27 10° SSW 16:30:37 24° W 16:33:48 10° NW
DMSP B5D2-2 3.9 16:29:15 10° NNE 16:34:30 79° ESE 16:39:42 10° S
Cosmos 1869 Rocket 3.4 16:36:52 10° S 16:41:08 64° E 16:45:29 10° NNE
Cosmos 2366 rocket 3.9 16:37:12 10° S 16:43:24 65° E 16:49:41 10° NNE
SL-4 R/B 3.1 16:40:26 10° NW 16:43:03 25° N 16:43:03 25° N
Cosmos 1339 Rocket 4.4 16:37:26 10° N 16:43:40 77° E 16:49:57 10° SSE
CSL-04 Rocket 4.5 16:40:32 10° S 16:45:56 52° W 16:51:20 10° NNW
Cosmos 1354 Rocket 4.4 16:42:54 10° NNW 16:48:05 62° WSW 16:52:57 11° S
ATLAS CENTAUR R/B 2.6 16:44:58 10° WSW 16:48:17 33° NW 16:50:43 16° N
Cosmos 1844 Rocket 2.8 16:45:08 10° NNW 16:50:42 72° WSW 16:54:24 21° SSE
Cosmos 2341 Rocket 4.3 16:45:24 10° SSW 16:51:42 70° W 16:57:58 10° N
FALCON 9 DEB 3.9 16:50:26 10° NW 16:53:01 47° NW 16:53:01 47° NW
Cosmos 2333 4.2 16:50:21 10° SSW 16:55:59 84° WNW 17:01:43 10° NNE
Cosmos 1777 Rocket 3.9 16:51:46 10° NNW 16:57:01 71° ENE 16:57:41 62° ESE
Cosmos 1666 3.5 16:54:23 10° SSW 16:57:59 50° W 17:01:38 10° N
Cosmos 1844 3.9 16:56:33 10° NNW 17:02:18 71° WSW 17:05:00 32° S
Cosmos 2360 Rocket 3.4 16:57:13 10° SW 17:02:32 42° WNW 17:07:55 10° NNE
Ariane Rocket 2.8 17:01:52 62° SE 17:02:42 79° ENE 17:07:49 10° NNW
Okean 3 4.1 17:03:13 10° N 17:06:22 49° N 17:06:22 49° N
Cosmos 1727 Rocket 3.9 17:01:26 10° N 17:07:34 63° E 17:08:08 60° ESE
Cosmos 2278 Rocket 3.4 17:02:57 10° N 17:06:44 28° NNE 17:06:44 28° NNE
Meteor 2-20 4.4 17:04:07 10° N 17:09:56 58° ENE 17:09:56 58° ENE
Cosmos 2218 Rocket 4.1 17:03:57 10° SSW 17:10:21 77° W 17:16:47 10° N
DELTA 2 R/B (1) 4.4 17:05:30 10° SW 17:09:40 37° S 17:09:40 37° S
Cosmos 2333 Rocket 2.2 17:06:32 10° SSW 17:12:12 79° WNW 17:17:58 10° NNE
SME Rocket 4.4 17:13:03 10° NNE 17:20:57 68° WNW 17:26:04 10° SSW
Resurs 01 Rocket 3.8 17:35:08 19° N 17:35:08 19° N 17:36:25 10° N
Lacrosse 4 Rocket 3.5 17:36:04 10° SW 17:38:01 24° WSW 17:38:01 24° WSW
COSMOS 2428 3.1 17:36:41 10° SW 17:42:18 62° WNW 17:42:29 61° NW
Cosmos 2219 Rocket 3.1 17:44:22 10° SW 17:49:42 45° WNW 17:53:41 17° N
BREEZE-M DEB (TANK) 4.2 17:38:21 10° WNW 17:50:35 73° NW 17:50:35 73° NW
USA 234 4.0 17:52:33 33° NNE 17:54:55 46° NNW 18:01:05 10° W
SJ 16-02 4.0 18:01:42 10° NNW 18:02:34 16° NNW 18:02:34 16° NNW
Cosmos 2278 Rocket 4.5 18:46:51 10° NW 18:48:36 19° NW 18:48:36 19° NW
